ORBCOMM-X [-] 1 21576U 91050C 10072.93468486 .00000057 00000-0 32185-4 0 2644 2 21576 98.5050 27.7459 0003368 322.7213 37.3742 14.39994019979363 ORBCOMM FM01 [-] 1 23545U 95017A 10073.71616059 .00000587 00000-0 13213-3 0 4524 2 23545 69.9712 222.1245 0010611 221.4364 138.5967 14.61431245793597 ORBCOMM FM02 [+] 1 23546U 95017B 10073.69100224 .00000629 00000-0 14082-3 0 5099 2 23546 69.9753 224.2887 0011230 207.4691 152.5859 14.61347822793608 ORBCOMM FM08 [+] 1 25112U 97084A 10072.73020930 .00000159 00000-0 10569-3 0 4739 2 25112 45.0181 167.4681 0007116 351.9397 8.1336 14.34382676638953 ORBCOMM FM10 [+] 1 25113U 97084B 10073.53104620 .00000069 00000-0 73879-4 0 2022 2 25113 45.0180 164.5115 0005109 312.0889 47.9519 14.34397961639067 ORBCOMM FM11 [+] 1 25114U 97084C 10073.66125504 .00000007 00000-0 52271-4 0 1351 2 25114 45.0190 163.5254 0005921 321.9347 38.1076 14.34401429639089 ORBCOMM FM12 [+] 1 25115U 97084D 10073.50490980 .00000073 00000-0 75447-4 0 1294 2 25115 45.0183 164.0117 0004680 322.9249 37.1288 14.34377056639069 ORBCOMM FM09 [+] 1 25116U 97084E 10073.72272350 -.00000029 00000-0 39364-4 0 2963 2 25116 45.0199 163.3750 0005315 307.1681 52.8678 14.34415541639095 ORBCOMM FM05 [+] 1 25117U 97084F 10073.47878042 -.00001280 00000-0 -40128-3 0 2304 2 25117 45.0189 164.7929 0001569 313.6841 46.4012 14.34378081639059 ORBCOMM FM06 [+] 1 25118U 97084G 10072.70371079 .00000241 00000-0 13478-3 0 1196 2 25118 45.0174 168.3164 0000595 272.3027 87.8003 14.34385314638943 ORBCOMM FM07 [+] 1 25119U 97084H 10073.20887031 .00000344 00000-0 17089-3 0 3876 2 25119 45.0185 166.1369 0002918 315.1104 44.9512 14.34394448639018 ORBCOMM FM03 [-] 1 25158U 98007B 10073.11959949 .00000063 00000-0 80708-4 0 1227 2 25158 107.9677 301.2920 0051448 186.0176 174.0334 14.25531988627988 ORBCOMM FM04 [+] 1 25159U 98007C 10073.33606291 .00000045 00000-0 73154-4 0 1161 2 25159 107.9683 301.5385 0047230 187.1886 172.8538 14.25544049628040 ORBCOMM FM17 [+] 1 25413U 98046A 10073.23968272 -.00000107 00000-0 12774-4 0 2618 2 25413 44.9974 83.2296 0004089 270.0990 89.9382 14.27593939605284 ORBCOMM FM18 [+] 1 25414U 98046B 10073.49921845 .00000109 00000-0 99368-4 0 2077 2 25414 44.9961 81.5516 0006424 262.3841 97.6281 14.27865841605324 ORBCOMM FM19 [+] 1 25415U 98046C 10072.94949611 .00000051 00000-0 76106-4 0 2440 2 25415 44.9960 84.3224 0005016 259.7568 100.2726 14.27862276605248 ORBCOMM FM20 [+] 1 25416U 98046D 10074.00905788 -.00000042 00000-0 38868-4 0 6872 2 25416 44.9964 79.5579 0003866 276.8133 83.2277 14.27852902605359 ORBCOMM FM16 [+] 1 25417U 98046E 10073.45925153 .00002962 00000-0 12419-2 0 2903 2 25417 44.9990 83.1063 0004686 279.9435 80.0840 14.27869060605318 ORBCOMM FM15 [+] 1 25418U 98046F 10074.02900018 .00000247 00000-0 15438-3 0 3383 2 25418 44.9999 80.6720 0005618 283.5648 76.4556 14.27858941605390 ORBCOMM FM14 [+] 1 25419U 98046G 10074.03899568 .00000518 00000-0 26314-3 0 3029 2 25419 44.9983 80.5602 0004413 270.7330 89.3012 14.27858947605396 ORBCOMM FM13 [+] 1 25420U 98046H 10073.48922433 .00000409 00000-0 21932-3 0 1845 2 25420 45.0002 83.5017 0005848 275.8654 84.1522 14.27856583605341 ORBCOMM FM21 [+] 1 25475U 98053A 10072.75026045 .00000097 00000-0 92710-4 0 2450 2 25475 45.0099 172.9300 0005648 190.8293 169.2419 14.29025300598379 ORBCOMM FM22 [+] 1 25476U 98053B 10073.27517582 .00000268 00000-0 15965-3 0 9251 2 25476 45.0093 170.8696 0003999 214.3073 145.7521 14.29030811598437 ORBCOMM FM23 [+] 1 25477U 98053C 10073.68203161 -.00000039 00000-0 39301-4 0 2343 2 25477 45.0108 168.6965 0004271 211.7470 148.3115 14.29024166598664 ORBCOMM FM24 [+] 1 25478U 98053D 10073.53143793 .00000036 00000-0 68599-4 0 8110 2 25478 45.0112 169.6459 0003162 218.6745 141.3870 14.29031639598628 ORBCOMM FM25 [+] 1 25479U 98053E 10073.49578995 .00000500 00000-0 25021-3 0 1089 2 25479 45.0100 169.1706 0004659 236.9193 123.1196 14.29022554598612 ORBCOMM FM26 [-] 1 25480U 98053F 10073.35251027 .00000030 00000-0 65778-4 0 1846 2 25480 45.0092 160.3434 0006749 267.5756 92.4325 14.29319739598696 ORBCOMM FM27 [+] 1 25481U 98053G 10073.64739477 .00000066 00000-0 80351-4 0 7208 2 25481 45.0094 168.1462 0003262 197.7659 162.3122 14.29029518598638 ORBCOMM FM28 [-] 1 25482U 98053H 10073.65628391 -.00000005 00000-0 51448-4 0 8325 2 25482 45.0107 139.0755 0005469 260.2932 99.7293 14.30151671599009 ORBCOMM FM30 [+] 1 25980U 99065A 10074.12166926 -.00000005 00000-0 52948-4 0 7668 2 25980 45.0362 331.6051 0005087 50.8837 309.2461 14.28905440536035 ORBCOMM FM31 [+] 1 25981U 99065B 10073.89914992 .00000018 00000-0 61800-4 0 8656 2 25981 45.0263 330.1278 0004065 56.4508 303.6816 14.28914848535991 ORBCOMM FM32 [+] 1 25982U 99065C 10073.16635070 .00000344 00000-0 18837-3 0 7971 2 25982 45.0244 332.5228 0006073 63.1857 296.9618 14.29346279535908 ORBCOMM FM33 [-] 1 25983U 99065D 10073.15701216 .00000153 00000-0 11484-3 0 7707 2 25983 45.0339 335.7804 0003752 35.8990 324.2115 14.28890956535883 ORBCOMM FM36 [+] 1 25984U 99065E 10073.18573077 .00000492 00000-0 24770-3 0 7970 2 25984 45.0412 337.4184 0005048 332.2129 27.8449 14.28913317535898 ORBCOMM FM35 [+] 1 25985U 99065F 10073.73028092 .00000182 00000-0 12615-3 0 8280 2 25985 45.0440 335.7514 0002874 39.5475 320.5578 14.28911126535974 ORBCOMM FM34 [+] 1 25986U 99065G 10073.85582602 -.00000152 00000-0 -49609-5 0 7784 2 25986 45.0427 334.6218 0004999 24.1387 335.9664 14.28908550535996 ORBCOMM FM38 [S] 1 33060U 08031A 10073.67790051 .00000076 00000-0 45970-4 0 5561 2 33060 48.4440 250.1211 0006938 114.5498 245.6126 14.68794877 93096 ORBCOMM FM41 [S] 1 33061U 08031B 10073.69724534 .00000150 00000-0 58535-4 0 5617 2 33061 48.4467 250.3310 0006080 106.3038 253.8524 14.68766590 93101 ORBCOMM FM29 [S] 1 33062U 08031C 10073.46978413 .00000093 00000-0 49138-4 0 5413 2 33062 48.4431 252.4828 0007956 108.7972 251.3783 14.68425830 93059 ORBCOMM FM39 [S] 1 33063U 08031D 10073.54154581 .00000112 00000-0 52674-4 0 5584 2 33063 48.4431 252.8707 0009815 101.8386 258.3621 14.68231301 93055 ORBCOMM FM37 [S] 1 33064U 08031E 10073.50112034 .00000149 00000-0 58735-4 0 5346 2 33064 48.4439 251.9320 0007699 109.6748 250.5000 14.68511879 93068 ORBCOMM FM40 [S] 1 33065U 08031F 10073.47265416 .00000140 00000-0 57537-4 0 5245 2 33065 48.4463 253.3642 0008916 109.4989 250.6884 14.68202229 93042